| time (UTC) | temp F | wind direction | speed knots | gust knots | rain 1hr in | rain 24hr in | rain mn in | humidity % | barometer mb |
| 20260504001536 | 55 | 218 | 4.3 | 9.6 | 0.00 | 0.00 | 0.00 | 50 | 1012.8 |
| 20260504001030 | 55 | 215 | 7.0 | 13.0 | 0.00 | 0.00 | 0.00 | 49 | 1012.7 |
| 20260504000529 | 55 | 212 | 7.8 | 11.3 | 0.00 | 0.00 | 0.00 | 49 | 1012.7 |
| 20260504000031 | 56 | 207 | 6.1 | 11.3 | 0.00 | 0.00 | 0.00 | 49 | 1012.7 |
| 20260503235534 | 56 | 227 | 7.8 | 10.4 | 0.00 | 0.00 | 0.00 | 48 | 1012.8 |
| 20260503235028 | 56 | 300 | 6.1 | 11.3 | 0.00 | 0.00 | 0.00 | 48 | 1012.8 |
| 20260503234534 | 56 | 225 | 6.1 | 13.0 | 0.00 | 0.00 | 0.00 | 48 | 1012.8 |
| 20260503234028 | 56 | 250 | 6.1 | 13.0 | 0.00 | 0.00 | 0.00 | 48 | 1012.8 |
| 20260503233527 | 57 | 227 | 7.0 | 14.8 | 0.00 | 0.00 | 0.00 | 47 | 1012.8 |
| 20260503233036 | 57 | 225 | 7.8 | 14.8 | 0.00 | 0.00 | 0.00 | 47 | 1012.9 |
| 20260503232527 | 57 | 244 | 8.7 | 14.8 | 0.00 | 0.00 | 0.00 | 46 | 1012.8 |
| 20260503232027 | 57 | 207 | 5.2 | 9.6 | 0.00 | 0.00 | 0.00 | 47 | 1012.8 |
| 20260503231532 | 57 | 233 | 6.1 | 10.4 | 0.00 | 0.00 | 0.00 | 47 | 1012.8 |
| 20260503231029 | 57 | 212 | 3.5 | 11.3 | 0.00 | 0.00 | 0.00 | 46 | 1012.9 |
| 20260503230530 | 57 | 232 | 7.0 | 11.3 | 0.00 | 0.00 | 0.00 | 46 | 1012.8 |
| 20260503230026 | 57 | 191 | 4.3 | 9.6 | 0.00 | 0.00 | 0.00 | 48 | 1013.0 |
| 20260503225525 | 57 | 227 | 4.3 | 9.6 | 0.00 | 0.00 | 0.00 | 46 | 1013.0 |
| 20260503225025 | 57 | 288 | 5.2 | 13.9 | 0.00 | 0.00 | 0.00 | 47 | 1012.9 |
| 20260503224525 | 57 | 201 | 7.0 | 9.6 | 0.00 | 0.00 | 0.00 | 45 | 1013.0 |
| 20260503224027 | 57 | 221 | 6.1 | 9.6 | 0.00 | 0.00 | 0.00 | 45 | 1013.0 |
| 20260503223525 | 57 | 194 | 4.3 | 12.2 | 0.00 | 0.00 | 0.00 | 46 | 1013.0 |
| 20260503223024 | 57 | 273 | 7.0 | 12.2 | 0.00 | 0.00 | 0.00 | 45 | 1013.0 |
| 20260503222523 | 57 | 239 | 5.2 | 10.4 | 0.00 | 0.00 | 0.00 | 46 | 1013.0 |
| 20260503222023 | 57 | 244 | 3.5 | 12.2 | 0.00 | 0.00 | 0.00 | 47 | 1013.0 |
| 20260503221529 | 57 | 263 | 5.2 | 14.8 | 0.00 | 0.00 | 0.00 | 45 | 1013.0 |
| 20260503221023 | 57 | 201 | 8.7 | 15.6 | 0.00 | 0.00 | 0.00 | 45 | 1013.1 |
| 20260503220523 | 57 | 219 | 6.1 | 18.2 | 0.00 | 0.00 | 0.00 | 44 | 1013.0 |
| 20260503220023 | 57 | 205 | 10.4 | 18.2 | 0.00 | 0.00 | 0.00 | 44 | 1013.0 |
| 20260503215523 | 57 | 207 | 7.8 | 14.8 | 0.00 | 0.00 | 0.00 | 45 | 1013.0 |
| 20260503215024 | 57 | 220 | 7.0 | 12.2 | 0.00 | 0.00 | 0.00 | 45 | 1013.0 |
| 20260503214522 | 57 | 265 | 4.3 | 12.2 | 0.00 | 0.00 | 0.00 | 45 | 1013.1 |
| 20260503214023 | 57 | 232 | 4.3 | 12.2 | 0.00 | 0.00 | 0.00 | 46 | 1012.9 |
| 20260503213522 | 57 | 246 | 7.8 | 18.2 | 0.00 | 0.00 | 0.00 | 44 | 1012.8 |
| 20260503213023 | 57 | 219 | 13.0 | 19.1 | 0.00 | 0.00 | 0.00 | 43 | 1012.8 |
| 20260503212522 | 58 | 249 | 5.2 | 13.9 | 0.00 | 0.00 | 0.00 | 43 | 1012.7 |
| 20260503212021 | 58 | 229 | 8.7 | 13.9 | 0.00 | 0.00 | 0.00 | 44 | 1012.7 |
| 20260503211522 | 57 | 234 | 7.0 | 15.6 | 0.00 | 0.00 | 0.00 | 44 | 1012.7 |
| 20260503211023 | 58 | 225 | 9.6 | 15.6 | 0.00 | 0.00 | 0.00 | 44 | 1012.8 |
| 20260503210520 | 58 | 219 | 8.7 | 13.0 | 0.00 | 0.00 | 0.00 | 44 | 1012.8 |
| 20260503210020 | 59 | 229 | 6.1 | 13.0 | 0.00 | 0.00 | 0.00 | 42 | 1012.7 |
| 20260503205520 | 59 | 215 | 5.2 | 13.0 | 0.00 | 0.00 | 0.00 | 45 | 1012.8 |
| 20260503205020 | 59 | 302 | 6.1 | 13.0 | 0.00 | 0.00 | 0.00 | 44 | 1012.8 |
| 20260503204523 | 58 | 346 | 5.2 | 13.0 | 0.00 | 0.00 | 0.00 | 44 | 1012.8 |
| 20260503204018 | 58 | 249 | 5.2 | 22.6 | 0.00 | 0.00 | 0.00 | 44 | 1013.0 |
| 20260503203518 | 58 | 208 | 11.3 | 22.6 | 0.00 | 0.00 | 0.00 | 42 | 1012.8 |
| 20260503203017 | 58 | 249 | 8.7 | 16.5 | 0.00 | 0.00 | 0.00 | 43 | 1013.0 |
| 20260503202516 | 59 | 239 | 8.7 | 19.1 | 0.00 | 0.00 | 0.00 | 43 | 1013.1 |
| 20260503202016 | 59 | 244 | 11.3 | 18.2 | 0.00 | 0.00 | 0.00 | 42 | 1013.2 |
| 20260503201515 | 58 | 236 | 5.2 | 13.0 | 0.00 | 0.00 | 0.00 | 45 | 1013.2 |
| 20260503201015 | 58 | 241 | 6.1 | 12.2 | 0.00 | 0.00 | 0.00 | 44 | 1013.3 |
| 20260503200516 | 58 | 284 | 8.7 | 12.2 | 0.00 | 0.00 | 0.00 | 45 | 1013.6 |
| 20260503200013 | 58 | 236 | 7.0 | 16.5 | 0.00 | 0.00 | 0.00 | 44 | 1013.6 |
| 20260503195512 | 58 | 200 | 8.7 | 19.1 | 0.00 | 0.00 | 0.00 | 43 | 1013.6 |
| 20260503195015 | 59 | 256 | 6.1 | 17.4 | 0.00 | 0.00 | 0.00 | 48 | 1013.6 |
| 20260503194510 | 57 | 226 | 8.7 | 17.4 | 0.00 | 0.00 | 0.00 | 46 | 1013.7 |
| 20260503194010 | 57 | 233 | 11.3 | 17.4 | 0.00 | 0.00 | 0.00 | 44 | 1013.7 |
| 20260503193509 | 58 | 219 | 12.2 | 20.9 | 0.00 | 0.00 | 0.00 | 43 | 1013.9 |
| 20260503193008 | 58 | 222 | 12.2 | 20.9 | 0.00 | 0.00 | 0.00 | 46 | 1013.8 |
| 20260503192506 | 58 | 222 | 7.0 | 15.6 | 0.00 | 0.00 | 0.00 | 49 | 1014.0 |
| 20260503192009 | 57 | 254 | 7.0 | 14.8 | 0.00 | 0.00 | 0.00 | 45 | 1014.0 |
| 20260503191505 | 57 | 238 | 6.1 | 12.2 | 0.00 | 0.00 | 0.00 | 45 | 1014.0 |
| 20260503191005 | 57 | 225 | 6.1 | 12.2 | 0.00 | 0.00 | 0.00 | 47 | 1014.2 |
| 20260503190504 | 57 | 202 | 7.0 | 14.8 | 0.00 | 0.00 | 0.00 | 46 | 1014.2 |
| 20260503190005 | 57 | 227 | 9.6 | 14.8 | 0.00 | 0.00 | 0.00 | 44 | 1014.3 |
| 20260503185503 | 58 | 215 | 8.7 | 14.8 | 0.00 | 0.00 | 0.00 | 46 | 1014.3 |
| 20260503185002 | 57 | 238 | 7.0 | 13.9 | 0.00 | 0.00 | 0.00 | 45 | 1014.4 |
| 20260503184601 | 57 | 231 | 7.0 | 13.9 | 0.00 | 0.00 | 0.00 | 48 | 1014.3 |
| 20260503184100 | 56 | 210 | 7.0 | 13.9 | 0.00 | 0.00 | 0.00 | 47 | 1014.6 |
| 20260503183559 | 56 | 220 | 7.0 | 15.6 | 0.00 | 0.00 | 0.00 | 47 | 1014.5 |
| 20260503183100 | 57 | 208 | 7.8 | 14.8 | 0.00 | 0.00 | 0.00 | 47 | 1014.5 |
| 20260503182558 | 56 | 215 | 5.2 | 14.8 | 0.00 | 0.00 | 0.00 | 46 | 1014.6 |
| 20260503182057 | 56 | 269 | 7.8 | 14.8 | 0.00 | 0.00 | 0.00 | 47 | 1014.9 |
| 20260503181555 | 56 | 302 | 8.7 | 17.4 | 0.00 | 0.00 | 0.00 | 46 | 1014.9 |
| 20260503181054 | 55 | 207 | 9.6 | 17.4 | 0.00 | 0.00 | 0.00 | 49 | 1014.9 |
| 20260503180554 | 55 | 219 | 7.8 | 14.8 | 0.00 | 0.00 | 0.00 | 49 | 1015.0 |
| 20260503180100 | 54 | 229 | 9.6 | 13.0 | 0.00 | 0.00 | 0.00 | 47 | 1015.1 |
| 20260503175553 | 54 | 260 | 5.2 | 14.8 | 0.00 | 0.00 | 0.00 | 47 | 1015.2 |
| 20260503175052 | 55 | 247 | 5.2 | 15.6 | 0.00 | 0.00 | 0.00 | 48 | 1015.3 |
| 20260503174558 | 55 | 204 | 8.7 | 22.6 | 0.00 | 0.00 | 0.00 | 49 | 1015.3 |
| 20260503174052 | 55 | 257 | 11.3 | 22.6 | 0.00 | 0.00 | 0.00 | 46 | 1015.3 |
| 20260503173552 | 55 | 237 | 4.3 | 18.2 | 0.00 | 0.00 | 0.00 | 48 | 1015.2 |
| 20260503173051 | 55 | 264 | 6.1 | 20.0 | 0.00 | 0.00 | 0.00 | 49 | 1015.3 |
| 20260503172548 | 55 | 193 | 11.3 | 20.0 | 0.00 | 0.00 | 0.00 | 48 | 1015.3 |
| 20260503172047 | 54 | 284 | 6.1 | 14.8 | 0.00 | 0.00 | 0.00 | 48 | 1015.5 |
| 20260503171550 | 54 | 234 | 7.8 | 15.6 | 0.00 | 0.00 | 0.00 | 48 | 1015.6 |
| 20260503171045 | 54 | 286 | 11.3 | 15.6 | 0.00 | 0.00 | 0.00 | 48 | 1015.6 |
| 20260503170544 | 54 | 217 | 6.1 | 13.9 | 0.00 | 0.00 | 0.00 | 49 | 1015.7 |
| 20260503150528 | 49 | 226 | 9.6 | 14.8 | 0.00 | 0.01 | 0.00 | 52 | 1017.0 |
| 20260503131003 | 42 | 247 | 3.5 | 10.4 | 0.00 | 0.01 | 0.00 | 71 | 1017.5 |
| 20260503130502 | 42 | 317 | 4.3 | 10.4 | 0.00 | 0.01 | 0.00 | 72 | 1017.6 |
| 20260503110540 | 32 | 360 | 0.0 | 0.0 | 0.00 | 0.02 | 0.00 | 90 | 1017.1 |
| 20260503081531 | 31 | 360 | 0.0 | 0.0 | 0.00 | 0.02 | 0.00 | 89 | 1016.8 |
| 20260503081032 | 31 | 360 | 0.0 | 1.7 | 0.00 | 0.02 | 0.00 | 89 | 1016.8 |
| 20260503080530 | 31 | 360 | 0.9 | 2.6 | 0.00 | 0.02 | 0.00 | 90 | 1016.9 |
| 20260503072526 | 31 | 360 | 0.9 | 2.6 | 0.00 | 0.02 | 0.00 | 89 | 1016.9 |
| 20260503072025 | 32 | 360 | 0.9 | 2.6 | 0.00 | 0.02 | 0.00 | 88 | 1016.8 |
| 20260503071524 | 32 | 360 | 0.9 | 2.6 | 0.00 | 0.02 | 0.00 | 89 | 1016.8 |
| 20260503071025 | 32 | 360 | 0.9 | 2.6 | 0.00 | 0.02 | 0.00 | 89 | 1016.8 |
| 20260503070527 | 32 | 360 | 0.9 | 2.6 | 0.00 | 0.02 | 0.00 | 89 | 1016.8 |
| 20260503055014 | 33 | 360 | 0.0 | 1.7 | 0.00 | 0.02 | 0.00 | 85 | 1017.2 |
| 20260503054514 | 33 | 360 | 0.9 | 1.7 | 0.00 | 0.02 | 0.00 | 84 | 1017.2 |
| 20260503054015 | 33 | 360 | 0.9 | 1.7 | 0.00 | 0.02 | 0.00 | 84 | 1017.3 |
| 20260503053513 | 33 | 360 | 0.0 | 2.6 | 0.00 | 0.02 | 0.00 | 85 | 1017.4 |
| 20260503053012 | 33 | 360 | 0.9 | 2.6 | 0.00 | 0.02 | 0.00 | 85 | 1017.4 |
| 20260503052512 | 33 | 360 | 0.9 | 2.6 | 0.00 | 0.02 | 0.00 | 85 | 1017.4 |
| 20260503052015 | 33 | 360 | 0.9 | 2.6 | 0.00 | 0.02 | 0.00 | 84 | 1017.3 |
| 20260503051510 | 33 | 360 | 0.9 | 2.6 | 0.00 | 0.02 | 0.00 | 84 | 1017.4 |
| 20260503051009 | 34 | 360 | 0.0 | 1.7 | 0.00 | 0.02 | 0.00 | 83 | 1017.4 |
| 20260503050507 | 34 | 360 | 0.9 | 1.7 | 0.00 | 0.02 | 0.00 | 83 | 1017.4 |
| 20260503050020 | 34 | 360 | 0.9 | 1.7 | 0.00 | 0.02 | 0.00 | 83 | 1017.5 |
| 20260503045509 | 34 | 360 | 0.9 | 2.6 | 0.00 | 0.02 | 0.00 | 83 | 1017.5 |
| 20260503045009 | 34 | 360 | 0.0 | 2.6 | 0.00 | 0.02 | 0.00 | 84 | 1017.6 |
| 20260503044506 | 34 | 360 | 0.9 | 1.7 | 0.00 | 0.02 | 0.00 | 84 | 1017.6 |
| 20260503044004 | 34 | 360 | 0.0 | 1.7 | 0.00 | 0.02 | 0.00 | 83 | 1017.6 |
| 20260503043504 | 34 | 360 | 0.9 | 1.7 | 0.00 | 0.02 | 0.00 | 83 | 1017.6 |
| 20260503043007 | 34 | 360 | 0.0 | 1.7 | 0.00 | 0.02 | 0.00 | 83 | 1017.6 |
| 20260503042503 | 34 | 360 | 0.9 | 1.7 | 0.00 | 0.02 | 0.00 | 84 | 1017.7 |
| 20260503042003 | 34 | 360 | 0.9 | 1.7 | 0.00 | 0.02 | 0.00 | 83 | 1017.7 |
| 20260503041502 | 34 | 360 | 0.9 | 1.7 | 0.00 | 0.02 | 0.00 | 83 | 1017.6 |
| 20260503041002 | 34 | 360 | 0.9 | 1.7 | 0.00 | 0.02 | 0.00 | 83 | 1017.6 |
| 20260503040600 | 34 | 360 | 0.9 | 1.7 | 0.00 | 0.02 | 0.00 | 83 | 1017.6 |
| 20260503040121 | 34 | 360 | 0.9 | 1.7 | 0.00 | 0.02 | 0.02 | 83 | 1017.6 |
| 20260503035600 | 34 | 360 | 0.9 | 2.6 | 0.00 | 0.02 | 0.02 | 82 | 1017.5 |
| 20260503035100 | 34 | 360 | 0.9 | 1.7 | 0.00 | 0.02 | 0.02 | 82 | 1017.5 |
| 20260503034600 | 34 | 360 | 0.9 | 2.6 | 0.00 | 0.02 | 0.02 | 82 | 1017.5 |
| 20260503034100 | 34 | 360 | 0.9 | 2.6 | 0.00 | 0.02 | 0.02 | 82 | 1017.7 |
| 20260503033559 | 34 | 360 | 0.9 | 1.7 | 0.00 | 0.02 | 0.02 | 81 | 1017.7 |
| 20260503033058 | 35 | 360 | 0.9 | 2.6 | 0.00 | 0.02 | 0.02 | 81 | 1017.7 |
| 20260503032558 | 35 | 360 | 0.9 | 2.6 | 0.00 | 0.02 | 0.02 | 81 | 1017.7 |
| 20260503032058 | 35 | 360 | 0.9 | 1.7 | 0.00 | 0.02 | 0.02 | 81 | 1017.7 |
| 20260503031606 | 35 | 360 | 0.9 | 2.6 | 0.00 | 0.02 | 0.02 | 80 | 1017.8 |
| 20260503031059 | 35 | 360 | 0.9 | 2.6 | 0.00 | 0.02 | 0.02 | 80 | 1017.7 |
| 20260503030558 | 36 | 360 | 0.9 | 2.6 | 0.00 | 0.02 | 0.02 | 79 | 1017.8 |
| 20260503030058 | 36 | 360 | 0.9 | 1.7 | 0.00 | 0.02 | 0.02 | 79 | 1017.9 |
| 20260503025557 | 36 | 360 | 0.9 | 1.7 | 0.00 | 0.02 | 0.02 | 79 | 1017.8 |
| 20260503025057 | 36 | 360 | 0.0 | 1.7 | 0.00 | 0.02 | 0.02 | 78 | 1017.9 |
| 20260503024557 | 37 | 360 | 0.0 | 0.9 | 0.00 | 0.02 | 0.02 | 78 | 1017.9 |
| 20260503024100 | 37 | 360 | 0.0 | 0.9 | 0.00 | 0.02 | 0.02 | 78 | 1018.0 |
| 20260503023559 | 37 | 360 | 0.0 | 0.0 | 0.00 | 0.02 | 0.02 | 79 | 1018.1 |
| 20260503023057 | 37 | 360 | 0.0 | 0.0 | 0.00 | 0.02 | 0.02 | 79 | 1018.1 |
| 20260503022556 | 37 | 360 | 0.0 | 0.0 | 0.00 | 0.02 | 0.02 | 78 | 1018.1 |
| 20260503022059 | 37 | 360 | 0.0 | 0.9 | 0.00 | 0.02 | 0.02 | 78 | 1018.1 |
| 20260503021556 | 37 | 360 | 0.0 | 0.9 | 0.00 | 0.02 | 0.02 | 78 | 1018.1 |
| 20260503021056 | 37 | 360 | 0.0 | 0.0 | 0.00 | 0.02 | 0.02 | 78 | 1018.0 |
| 20260503020556 | 37 | 360 | 0.0 | 0.9 | 0.00 | 0.02 | 0.02 | 78 | 1018.0 |
| 20260503020056 | 37 | 360 | 0.0 | 0.9 | 0.00 | 0.02 | 0.02 | 77 | 1018.0 |
| 20260503015655 | 38 | 360 | 0.0 | 0.9 | 0.00 | 0.02 | 0.02 | 77 | 1018.0 |
| 20260503015055 | 38 | 360 | 0.0 | 0.0 | 0.00 | 0.02 | 0.02 | 77 | 1018.1 |
| 20260503014609 | 38 | 360 | 0.0 | 0.9 | 0.00 | 0.02 | 0.02 | 77 | 1018.0 |
| 20260503014055 | 38 | 360 | 0.0 | 0.9 | 0.00 | 0.02 | 0.02 | 76 | 1018.0 |
| 20260503013555 | 38 | 360 | 0.0 | 0.9 | 0.00 | 0.02 | 0.02 | 75 | 1018.0 |
| 20260503013054 | 38 | 360 | 0.0 | 0.9 | 0.00 | 0.02 | 0.02 | 74 | 1017.9 |
| 20260503012555 | 38 | 360 | 0.0 | 0.9 | 0.00 | 0.02 | 0.02 | 73 | 1017.9 |
| 20260503012056 | 38 | 360 | 0.0 | 0.9 | 0.00 | 0.02 | 0.02 | 72 | 1018.2 |
| 20260503011558 | 38 | 360 | 0.0 | 1.7 | 0.00 | 0.02 | 0.02 | 72 | 1017.9 |
| 20260503011054 | 38 | 360 | 0.0 | 1.7 | 0.00 | 0.02 | 0.02 | 72 | 1017.9 |
| 20260503010554 | 38 | 360 | 0.0 | 1.7 | 0.00 | 0.02 | 0.02 | 71 | 1017.9 |
| 20260503010054 | 38 | 360 | 0.0 | 2.6 | 0.00 | 0.02 | 0.02 | 71 | 1017.8 |
| 20260503005555 | 39 | 360 | 0.0 | 2.6 | 0.00 | 0.02 | 0.02 | 71 | 1017.9 |
| 20260503005055 | 39 | 360 | 0.0 | 1.7 | 0.00 | 0.02 | 0.02 | 70 | 1017.8 |
| 20260503004554 | 39 | 360 | 0.0 | 2.6 | 0.00 | 0.02 | 0.02 | 70 | 1017.8 |
| 20260503004057 | 39 | 360 | 0.9 | 2.6 | 0.00 | 0.02 | 0.02 | 69 | 1017.8 |
| 20260503003554 | 39 | 360 | 0.0 | 2.6 | 0.00 | 0.02 | 0.02 | 69 | 1017.7 |
| 20260503003052 | 39 | 360 | 0.9 | 2.6 | 0.00 | 0.02 | 0.02 | 69 | 1017.7 |
| 20260503002555 | 39 | 360 | 0.9 | 3.5 | 0.00 | 0.02 | 0.02 | 69 | 1017.7 |
| 20260503002052 | 39 | 360 | 0.0 | 3.5 | 0.00 | 0.02 | 0.02 | 68 | 1017.6 |